Location: Newark
(44.3681°N, 100.3364°W)
Time: 13:08:27
(UTC+00:00)

deb Explorer IX - Pass Details

Date: 24 February 2020
Orbit: 547 x 1100 km, 38.8° (Epoch: 06 April)

Event Time Altitude Azimuth Distance (km) Brightness Sun altitude
Rises 14:59:23 0° 203° (SSW) 3,105 ? 14.5°
Reaches altitude 10° 15:03:29 10° 172° (S) 2,054 ? 15.1°
Maximum altitude 15:05:07 12° 151° (SSE) 1,897 ? 15.3°
Drops below altitude 10° 15:06:42 10° 130° (SE) 1,965 ? 15.6°
Sets 15:10:22 0° 98° (E) 2,784 ? 16.2°
